Zurück zum Katalog

COSMOS 1823 DEB

AktivLEO
NORAD 39815·DEBRIS·🇷🇺 Russia

Gestartet Feb 20, 1987 von Plesetsk Cosmodrome

Loading…

Nächste Überflüge (nächste 24 Stunden)

TLE

AlterndSource: Space-Track

Epoche: Sep 12, 2026, 10:05 UTC

1 39815U 87020EP  26255.42044530  .00000020  00000-0  27043-3 0  9996
2 39815  73.5996 277.7380 0025176 112.0239 248.3484 12.42115193715881

Verfolge COSMOS 1823 DEB in Echtzeit mit AllMySat

Download on the App Store